Date String (YYYY-MM-DD hh:mm:ss) UTC,Instrument flags,absolute air pressure of the measurement (hPa),sample flow rate (lpm),inlet stack bypass flow (lpm),air temperature of the measurement (°C),ambient temperature measured by the external sensor (°C),aerosol sample conditioner tube jacket temperature (°C),OPC LED temperature (°C),internal box temperature (°C),relative humidity of the measurement (%),span deviation,mass concentration of particles derived from Lorenz-Mie calculation of OPC scattering (μg/m³),mass concentration of particles derived from Lorenz-Mie calculation of OPC scattering (μg/m³),mass concentration of particles derived from Lorenz-Mie calculation of OPC scattering (μg/m³)
DateTimeUTC,F1_M11,P_M11,Q1_M11,Q2_M11,T1_M11,T2_M11,T3_M11,T4_M11,T5_M11,U1_M11,ZSPAN_M11,X0_M11,X2_M11,X1_M11
2024-04-30 11:00:00,SystemResetWarning,0821.3,5.00,000.00,025.0,024.2,000.0,033.6,026.8,018.8,0000.0,0010.24,0003.70,0002.14
2024-04-30 11:01:00,SystemResetWarning,0821.5,5.00,000.00,025.0,024.2,000.0,033.6,026.8,018.8,0000.0,0010.44,0003.70,0002.19
2024-04-30 11:02:00,SystemResetWarning,0821.2,4.99,000.00,025.0,024.2,000.0,033.6,026.8,018.7,0000.0,0010.48,0003.71,0002.22
2024-04-30 11:03:00,SystemResetWarning,0821.2,4.99,000.00,025.0,024.2,000.0,033.6,026.8,018.7,0000.0,0010.61,0003.73,0002.26
2024-04-30 11:04:00,SystemResetWarning,0821.2,5.00,000.00,025.0,024.2,000.0,033.6,026.8,018.9,0000.0,0010.40,0003.71,0002.28
2024-04-30 11:05:00,SystemResetWarning,0821.2,5.02,000.00,025.0,024.2,000.0,033.6,026.8,019.0,0000.0,0010.33,0003.71,0002.31
2024-04-30 11:06:00,SystemResetWarning,0821.3,4.99,000.00,025.0,024.2,000.0,033.6,026.8,018.9,0000.0,0010.39,0003.74,0002.33
2024-04-30 11:07:00,SystemResetWarning,0821.3,4.99,000.00,025.0,024.2,000.0,033.6,026.8,018.9,0000.0,0010.39,0003.73,0002.36
2024-04-30 11:08:00,SystemResetWarning,0821.3,5.00,000.00,025.0,024.2,000.0,033.6,026.8,018.9,0000.0,0010.19,0003.68,0002.33
2024-04-30 11:09:00,SystemResetWarning,0821.3,5.01,000.00,025.0,024.2,000.0,033.6,026.8,018.8,0000.0,0010.21,0003.67,0002.34
2024-04-30 11:10:00,SystemResetWarning,0821.3,5.00,000.00,025.0,024.2,000.0,033.6,026.8,018.7,0000.0,0010.14,0003.66,0002.36
2024-04-30 11:11:00,SystemResetWarning,0821.3,4.99,000.00,025.0,024.2,000.0,033.6,026.8,018.8,0000.0,0009.34,0003.66,0002.34
2024-04-30 11:12:00,SystemResetWarning,0821.2,4.99,000.00,025.0,024.2,000.0,033.6,026.8,018.9,0000.0,0008.83,0003.67,0002.31
2024-04-30 11:13:00,SystemResetWarning,0821.2,5.00,000.00,025.0,024.2,000.0,033.6,026.8,018.9,0000.0,0008.73,0003.66,0002.30
2024-04-30 11:14:00,SystemResetWarning,0821.2,5.01,000.00,025.0,024.2,000.0,033.6,026.8,019.0,0000.0,0008.59,0003.64,0002.30
2024-04-30 11:15:00,SystemResetWarning,0821.3,5.00,000.00,025.0,024.2,000.0,033.5,026.8,019.1,0000.0,0008.74,0003.62,0002.29
2024-04-30 11:16:00,SystemResetWarning,0821.3,4.99,000.00,025.0,024.2,000.0,033.5,026.8,019.1,0000.0,0008.97,0003.65,0002.28
2024-04-30 11:17:00,SystemResetWarning,0821.9,4.98,000.00,025.0,024.2,000.0,033.5,026.8,019.2,0000.0,0009.22,0003.67,0002.27
2024-04-30 11:18:00,SystemResetWarning,0821.5,4.99,000.00,025.0,024.2,000.0,033.5,026.8,019.3,0000.0,0009.27,0003.66,0002.24
2024-04-30 11:19:00,SystemResetWarning,0821.6,5.00,000.00,025.0,024.2,000.0,033.5,026.8,019.3,0000.0,0009.23,0003.70,0002.25
2024-04-30 11:20:00,SystemResetWarning,0821.6,5.01,000.00,025.0,024.2,000.0,033.5,026.8,019.3,0000.0,0008.86,0003.70,0002.24
2024-04-30 11:21:00,SystemResetWarning,0821.7,5.01,000.00,025.0,024.2,000.0,033.5,026.8,019.3,0000.0,0008.95,0003.68,0002.23
2024-04-30 11:22:00,SystemResetWarning,0821.6,5.01,000.00,025.0,024.1,000.0,033.5,026.8,019.3,0000.0,0009.23,0003.72,0002.23
2024-04-30 11:23:00,SystemResetWarning,0821.6,4.99,000.00,025.0,024.1,000.0,033.5,026.8,019.3,0000.0,0009.20,0003.74,0002.22
2024-04-30 11:24:00,SystemResetWarning,0821.7,4.99,000.00,025.0,024.1,000.0,033.5,026.8,019.4,0000.0,0009.10,0003.72,0002.22
2024-04-30 11:25:00,SystemResetWarning,0821.8,5.00,000.00,025.0,024.1,000.0,033.5,026.8,019.4,0000.0,0009.06,0003.72,0002.22
2024-04-30 11:26:00,SystemResetWarning,0821.9,5.01,000.00,024.9,024.1,000.0,033.5,026.8,019.4,0000.0,0008.83,0003.73,0002.22
2024-04-30 11:27:00,SystemResetWarning,0822.0,5.01,000.00,025.0,024.1,000.0,033.5,026.8,019.5,0000.0,0008.56,0003.68,0002.18
2024-04-30 11:28:00,SystemResetWarning,0822.1,5.00,000.00,025.0,024.2,000.0,033.5,026.8,019.5,0000.0,0008.29,0003.62,0002.17
2024-04-30 11:29:00,SystemResetWarning,0822.1,5.00,000.00,024.9,024.1,000.0,033.5,026.8,019.5,0000.0,0009.29,0003.60,0002.15
2024-04-30 11:30:00,SystemResetWarning,0822.2,4.99,000.00,024.9,024.1,000.0,033.5,026.8,019.4,0000.0,0009.30,0003.60,0002.14
2024-04-30 11:31:00,SystemResetWarning,0822.1,5.00,000.00,024.9,024.1,000.0,033.5,026.8,019.4,0000.0,0009.27,0003.59,0002.12
2024-04-30 11:32:00,SystemResetWarning,0822.1,5.01,000.00,024.9,024.1,000.0,033.5,026.7,019.2,0000.0,0009.03,0003.57,0002.09
2024-04-30 11:33:00,SystemResetWarning,0822.1,5.01,000.00,024.9,024.1,000.0,033.5,026.7,018.9,0000.0,0008.82,0003.53,0002.06
2024-04-30 11:34:00,SystemResetWarning,0822.2,4.99,000.00,024.9,024.1,000.0,033.5,026.7,018.7,0000.0,0008.76,0003.52,0002.04
2024-04-30 11:35:00,SystemResetWarning,0822.2,4.99,000.00,024.9,024.1,000.0,033.5,026.8,018.7,0000.0,0008.81,0003.50,0002.01
2024-04-30 11:36:00,SystemResetWarning,0822.1,4.99,000.00,024.9,024.1,000.0,033.5,026.7,018.7,0000.0,0008.75,0003.45,0001.97
2024-04-30 11:37:00,SystemResetWarning,0822.0,5.01,000.00,024.9,024.1,000.0,033.5,026.7,018.6,0000.0,0008.94,0003.43,0001.92
2024-04-30 11:38:00,SystemResetWarning,0822.0,5.01,000.00,024.9,024.1,000.0,033.5,026.7,018.8,0000.0,0009.07,0003.45,0001.90
2024-04-30 11:39:00,SystemResetWarning,0821.9,5.00,000.00,024.9,024.1,000.0,033.5,026.7,018.7,0000.0,0009.12,0003.42,0001.88
2024-04-30 11:40:00,SystemResetWarning,0821.9,5.00,000.00,024.9,024.1,000.0,033.5,026.7,018.5,0000.0,0008.28,0003.41,0001.85
2024-04-30 11:41:00,SystemResetWarning,0821.9,4.99,000.00,024.9,024.1,000.0,033.5,026.8,018.2,0000.0,0007.77,0003.37,0001.83
2024-04-30 11:42:00,SystemResetWarning,0822.0,5.00,000.00,024.9,024.1,000.0,033.5,026.8,018.5,0000.0,0007.63,0003.30,0001.78
2024-04-30 11:43:00,SystemResetWarning,0821.9,4.99,000.00,024.9,024.1,000.0,033.5,026.8,018.3,0000.0,0007.38,0003.21,0001.71
2024-04-30 11:44:00,SystemResetWarning,0822.0,5.01,000.00,024.9,024.1,000.0,033.5,026.7,018.5,0000.0,0006.94,0003.06,0001.61
2024-04-30 11:45:00,SystemResetWarning,0822.0,5.00,000.00,024.9,024.1,000.0,033.5,026.7,018.6,0000.0,0006.47,0002.87,0001.52
2024-04-30 11:46:00,SystemResetWarning,0822.0,5.01,000.00,024.9,024.1,000.0,033.5,026.7,018.6,0000.0,0007.53,0002.81,0001.46
2024-04-30 11:47:00,SystemResetWarning,0821.9,4.99,000.00,024.9,024.1,000.0,033.5,026.7,018.6,0000.0,0007.52,0002.76,0001.40
2024-04-30 11:48:00,SystemResetWarning,0821.9,4.99,000.00,024.9,024.1,000.0,033.5,026.7,018.7,0000.0,0007.02,0002.61,0001.33
2024-04-30 11:49:00,SystemResetWarning,0822.0,5.00,000.00,024.9,024.1,000.0,033.5,026.7,018.9,0000.0,0007.13,0002.50,0001.27
2024-04-30 11:50:00,SystemResetWarning,0821.9,5.01,000.00,024.9,024.2,000.0,033.5,026.8,019.0,0000.0,0007.45,0002.45,0001.24
2024-04-30 11:51:00,SystemResetWarning,0822.0,5.01,000.00,024.9,024.2,000.0,033.5,026.7,019.2,0000.0,0007.34,0002.39,0001.22
2024-04-30 11:52:00,SystemResetWarning,0822.0,4.99,000.00,024.9,024.2,000.0,033.5,026.7,019.4,0000.0,0007.41,0002.40,0001.21
2024-04-30 11:53:00,SystemResetWarning,0822.0,5.00,000.00,024.9,024.2,000.0,033.5,026.8,019.3,0000.0,0007.67,0002.40,0001.21
2024-04-30 11:54:00,SystemResetWarning,0822.1,5.00,000.00,024.9,024.2,000.0,033.5,026.8,019.5,0000.0,0009.41,0002.46,0001.24
2024-04-30 11:55:00,SystemResetWarning,0822.1,5.00,000.00,024.9,024.2,000.0,033.5,026.7,019.3,0000.0,0009.78,0002.61,0001.31
2024-04-30 11:56:00,SystemResetWarning,0822.2,5.00,000.00,024.9,024.2,000.0,033.4,026.8,019.5,0000.0,0009.93,0002.73,0001.37
2024-04-30 11:57:00,SystemResetWarning,0822.2,5.01,000.00,024.9,024.2,000.0,033.4,026.8,019.3,0000.0,0009.27,0002.78,0001.41
2024-04-30 11:58:00,SystemResetWarning,0822.2,5.01,000.00,024.9,024.2,000.0,033.4,026.7,019.0,0000.0,0009.40,0002.87,0001.46
2024-04-30 11:59:00,SystemResetWarning,0822.2,4.99,000.00,024.9,024.2,000.0,033.4,026.8,018.9,0000.0,0010.26,0002.99,0001.48
